Tracking 18673 objects as of 25-June-2017
HD Live streaming from Space Station
objects crossing your sky now

DMSP 5D-2 F11 DEB

Track DMSP 5D-2 F11 DEB now!
10-day predictions


NORAD ID: 29070
Int'l Code: 1991-082BR
Perigee: 781.8 km
Apogee: 804.7 km
Inclination: 98.8 °
Period: 100.6 minutes
Semi major axis: 7164 km
RCS: 0.0089 m2 (small)
Launch date: November 28, 1991
Source: United States (US)
Launch site: AIR FORCE WESTERN TEST RANGE (AFWTR)

Note: This is SATELLITE DEBRIS
Your satellite tracking list
Your tracking list is empty





NASA's NSSDC Master Catalog

Two Line Element Set (TLE):
1 29070U 91082BR  17174.50940105 +.00000962 +00000-0 +37718-3 0  9998
2 29070 098.7795 195.5078 0015948 130.1071 230.1512 14.31688660666599
Source of the keplerian elements: AFSPC